KBKFKEGE

Guest
Details From KBKF - BUCKLEY AFB
To KEGE - EAGLE CO RGNL
Flight Number -
Tags generated
Created
Modified
Stats Distance 112 nm / 208 km
Max Altitude 2,100 ft / 640 m
Waypoints 3
Social Downloads 0
Likes 0
Share VATSIM

Download

Looking for another format? Having issues loading an existing format? Contact us
Advertisement - Login to hide

Notes

Basic altitude profile: - Ascent Rate: 2500ft/min - Ascent Speed: 250kts - Cruise Altitude: 35000ft - Cruise Speed: 320kts - Descent Rate: 1500ft/min - Descent Speed: 250kts Options: - Use NATs: yes - Use PACOTS: yes - Use low airways: no - Use high airways: yes

Route

KBKF FQF KEGE

ID Type Via Altitude Latitude Longitude Leg Dist Tot Dist Heading (true) Name
O KBKF APT - 0 ft / 0 m 39.70176˚ -104.75196˚ - 0 nm - BUCKLEY AFB
FQF VOR - 2,100 ft / 640 m 39.69014˚ -104.62097˚ 6 nm 6 nm 97° / 97° FALCON VORTAC
O KEGE APT - 0 ft / 0 m 39.64257˚ -106.91770˚ 106 nm 112 nm 269° / 268° EAGLE CO RGNL

Altitude Profile

Advertisement - Login to hide

KBKF

Details ICAO KBKF (BKF)
Name BUCKLEY AFB
Region United States
Timezone America/Denver (UTC-6.0)
Stats Elevation 5,662 ft / 1,726 m (AMSL)
Location 39.701758° -104.751961°
Runways 1
Magnetic Variation 8.045° E

METAR

KBKF 200958Z 11005KT 10SM SCT005 OVC024 05/05 A3021 RMK AO2A SLP215 T00480048

Decode

TAF

TAF KBKF 200903Z 2009/2115 VRB06KT 9999 BKN005 QNH3020INS BECMG 2011/2012 VRB06KT 9999 BKN012 QNH3020INS BECMG 2014/2015 VRB06KT 9999 SCT035 BKN180 QNH3002INS TX17/2023Z TN03/2012Z

Decode

Departure Runways

ID Width Length Bearing (true) Bearing (mag) Surface Threshold Offset Overrun Length
14 150 ft / 46 m 11,015 ft / 3,357 m 151.17° 143.13° Asphalt 0 ft / 0 m 750 ft / 229 m
32 150 ft / 46 m 11,015 ft / 3,357 m 331.18° 323.14° Asphalt 0 ft / 0 m 1,000 ft / 305 m

KEGE

Details ICAO KEGE (EGE)
Name EAGLE CO RGNL
Region United States
Timezone America/Denver (UTC-6.0)
Stats Elevation 6,540 ft / 1,993 m (AMSL)
Location 39.642567° -106.917696°
Runways 1
Magnetic Variation 9.121° E

METAR

KEGE 200956Z AUTO 10004KT 10SM CLR 02/01 A3019 RMK AO2 SLP217 T00170006 FZRANO

Decode

TAF

KEGE 200537Z 2006/2106 VRB05KT P6SM FEW090 SCT250 FM201900 25006KT P6SM FEW090 SCT100 FM202200 23010KT P6SM SCT090 BKN100 AMD LTD TO CLD VIS AND WIND TIL 201300

Decode

Destination Runways

ID Width Length Bearing (true) Bearing (mag) Surface Threshold Offset Overrun Length
07 150 ft / 46 m 7,981 ft / 2,433 m 81.90° 72.78° Asphalt 0 ft / 0 m 0 ft / 0 m
25 150 ft / 46 m 7,981 ft / 2,433 m 261.92° 252.80° Asphalt 0 ft / 0 m 0 ft / 0 m

Approach Navaids

Runway Type Ident Frequency Range Bearing (true) Bearing (mag) Slope Elevation
25 Localiser IESJ 109.75 MHz 18 nm / 33 km 258.91° 249.79° - 6,461 ft / 1,969 m (AMSL)
25 DME IESJ 109.75 MHz 18 nm / 33 km - - - 6,473 ft / 1,973 m (AMSL)

Popular Alternatives